| time (UTC) | temp F | wind direction | speed MPH | gust MPH | rain 1hr in | rain 24hr in | rain mn in | humidity % | barometer mb |
| 20260502152206 | 77 | 203 | 3.0 | 10.0 | 0.00 | 0.00 | 0.00 | 28 | 1016.8 |
| 20260502151705 | 77 | 290 | 3.0 | 10.0 | 0.00 | 0.00 | 0.00 | 28 | 1017.0 |
| 20260502151206 | 78 | 196 | 4.0 | 10.0 | 0.00 | 0.00 | 0.00 | 27 | 1017.1 |
| 20260502150204 | 78 | 131 | 3.0 | 7.0 | 0.00 | 0.00 | 0.00 | 27 | 1017.1 |
| 20260502130208 | 77 | 107 | 5.0 | 12.0 | 0.00 | 0.00 | 0.00 | 32 | 1018.6 |
| 20260502123705 | 78 | 162 | 3.0 | 11.0 | 0.00 | 0.00 | 0.00 | 33 | 1018.8 |
| 20260502123205 | 77 | 229 | 3.0 | 11.0 | 0.00 | 0.00 | 0.00 | 32 | 1019.0 |
| 20260502122705 | 77 | 245 | 4.0 | 11.0 | 0.00 | 0.00 | 0.00 | 33 | 1019.0 |
| 20260502122206 | 77 | 139 | 4.0 | 9.0 | 0.00 | 0.00 | 0.00 | 33 | 1019.2 |
| 20260502121706 | 76 | 98 | 3.0 | 7.0 | 0.00 | 0.00 | 0.00 | 37 | 1019.3 |
| 20260502121232 | 75 | 188 | 3.0 | 10.0 | 0.00 | 0.00 | 0.00 | 36 | 1019.4 |
| 20260502120705 | 74 | 50 | 3.0 | 10.0 | 0.00 | 0.00 | 0.00 | 35 | 1019.5 |
| 20260502120205 | 75 | 60 | 4.0 | 10.0 | 0.00 | 0.00 | 0.00 | 34 | 1019.6 |
| 20260502115206 | 74 | 1 | 3.0 | 8.0 | 0.00 | 0.00 | 0.00 | 38 | 1019.7 |
| 20260502114705 | 74 | 127 | 3.0 | 9.0 | 0.00 | 0.00 | 0.00 | 35 | 1019.8 |
| 20260502113705 | 74 | 96 | 4.0 | 9.0 | 0.00 | 0.00 | 0.00 | 35 | 1019.9 |
| 20260502112705 | 73 | 178 | 3.0 | 10.0 | 0.00 | 0.00 | 0.00 | 40 | 1020.0 |
| 20260502111206 | 73 | 156 | 4.0 | 9.0 | 0.00 | 0.00 | 0.00 | 39 | 1020.3 |
| 20260502110705 | 73 | 229 | 4.0 | 9.0 | 0.00 | 0.00 | 0.00 | 36 | 1020.4 |
| 20260502110205 | 73 | 132 | 4.0 | 9.0 | 0.00 | 0.00 | 0.00 | 37 | 1020.4 |
| 20260502105705 | 73 | 123 | 4.0 | 9.0 | 0.00 | 0.00 | 0.00 | 38 | 1020.4 |
| 20260502105205 | 72 | 205 | 3.0 | 9.0 | 0.00 | 0.00 | 0.00 | 38 | 1020.4 |
| 20260502104705 | 72 | 132 | 4.0 | 8.0 | 0.00 | 0.00 | 0.00 | 38 | 1020.4 |
| 20260502104206 | 73 | 104 | 4.0 | 9.0 | 0.00 | 0.00 | 0.00 | 40 | 1020.5 |
| 20260502103705 | 73 | 106 | 4.0 | 10.0 | 0.00 | 0.00 | 0.00 | 38 | 1020.6 |
| 20260502103205 | 72 | 89 | 3.0 | 10.0 | 0.00 | 0.00 | 0.00 | 43 | 1020.6 |
| 20260502102206 | 70 | 144 | 4.0 | 7.0 | 0.00 | 0.00 | 0.00 | 43 | 1020.7 |
| 20260502101206 | 70 | 77 | 2.0 | 7.0 | 0.00 | 0.00 | 0.00 | 44 | 1021.1 |
| 20260502100706 | 70 | 28 | 3.0 | 7.0 | 0.00 | 0.00 | 0.00 | 44 | 1021.1 |
| 20260502100205 | 69 | 63 | 3.0 | 7.0 | 0.00 | 0.00 | 0.00 | 44 | 1021.2 |
| 20260502091232 | 67 | 65 | 5.0 | 10.0 | 0.00 | 0.00 | 0.00 | 46 | 1021.5 |
| 20260502090706 | 67 | 86 | 5.0 | 10.0 | 0.00 | 0.00 | 0.00 | 45 | 1021.5 |
| 20260502090205 | 67 | 89 | 4.0 | 10.0 | 0.00 | 0.00 | 0.00 | 48 | 1021.5 |
| 20260502071206 | 48 | 222 | 2.0 | 5.0 | 0.00 | 0.00 | 0.00 | 89 | 1022.5 |
| 20260502070205 | 47 | 269 | 2.0 | 6.0 | 0.00 | 0.00 | 0.00 | 89 | 1022.5 |
| 20260502065215 | 45 | 233 | 2.0 | 3.0 | 0.00 | 0.00 | 0.00 | 90 | 1022.5 |
| 20260502064206 | 44 | 108 | 1.0 | 3.0 | 0.00 | 0.00 | 0.00 | 89 | 1022.4 |
| 20260502063705 | 44 | 178 | 1.0 | 3.0 | 0.00 | 0.00 | 0.00 | 89 | 1022.4 |
| 20260502063205 | 43 | 222 | 1.0 | 3.0 | 0.00 | 0.00 | 0.00 | 89 | 1022.4 |
| 20260502062705 | 43 | 1 | 1.0 | 3.0 | 0.00 | 0.00 | 0.00 | 88 | 1022.4 |
| 20260502062206 | 42 | 131 | 1.0 | 3.0 | 0.00 | 0.00 | 0.00 | 88 | 1022.4 |
| 20260502061713 | 42 | 222 | 1.0 | 2.0 | 0.00 | 0.00 | 0.00 | 88 | 1022.5 |
| 20260502061205 | 42 | 46 | 1.0 | 2.0 | 0.00 | 0.00 | 0.00 | 88 | 1022.5 |
| 20260502060706 | 42 | 89 | 1.0 | 3.0 | 0.00 | 0.00 | 0.00 | 87 | 1022.5 |
| 20260502055705 | 41 | 215 | 1.0 | 3.0 | 0.00 | 0.00 | 0.00 | 87 | 1022.5 |
| 20260502054205 | 40 | 178 | 2.0 | 3.0 | 0.00 | 0.00 | 0.00 | 85 | 1022.6 |
| 20260502053206 | 40 | 145 | 1.0 | 2.0 | 0.00 | 0.00 | 0.00 | 85 | 1022.6 |
| 20260502052706 | 40 | 108 | 1.0 | 2.0 | 0.00 | 0.00 | 0.00 | 84 | 1022.5 |
| 20260502052225 | 40 | 89 | 1.0 | 2.0 | 0.00 | 0.00 | 0.00 | 84 | 1022.6 |
| 20260502051705 | 39 | 117 | 1.0 | 2.0 | 0.00 | 0.00 | 0.00 | 84 | 1022.5 |
| 20260502050706 | 39 | 56 | 1.0 | 4.0 | 0.00 | 0.00 | 0.00 | 83 | 1022.6 |
| 20260502050205 | 39 | 135 | 1.0 | 4.0 | 0.00 | 0.00 | 0.00 | 83 | 1022.6 |
| 20260502045705 | 39 | 121 | 3.0 | 4.0 | 0.00 | 0.00 | 0.00 | 83 | 1022.6 |
| 20260502044705 | 39 | 72 | 2.0 | 3.0 | 0.00 | 0.00 | 0.00 | 82 | 1022.6 |
| 20260502044205 | 39 | 50 | 1.0 | 2.0 | 0.00 | 0.00 | 0.00 | 82 | 1022.6 |
| 20260502043705 | 39 | 117 | 1.0 | 2.0 | 0.00 | 0.00 | 0.00 | 81 | 1022.6 |
| 20260502043205 | 40 | 35 | 1.0 | 2.0 | 0.00 | 0.00 | 0.00 | 82 | 1022.6 |
| 20260502042705 | 40 | 89 | 1.0 | 2.0 | 0.00 | 0.00 | 0.00 | 81 | 1022.7 |
| 20260502042206 | 40 | 46 | 1.0 | 3.0 | 0.00 | 0.00 | 0.00 | 81 | 1022.7 |
| 20260502041729 | 40 | 269 | 1.0 | 3.0 | 0.00 | 0.00 | 0.00 | 81 | 1022.7 |
| 20260502041206 | 40 | 269 | 1.0 | 3.0 | 0.00 | 0.00 | 0.00 | 81 | 1022.7 |
| 20260502040704 | 40 | 257 | 1.0 | 3.0 | 0.00 | 0.00 | 0.00 | 80 | 1022.7 |
| 20260502040205 | 40 | 314 | 1.0 | 3.0 | 0.00 | 0.00 | 0.00 | 80 | 1022.7 |
| 20260502035706 | 40 | 269 | 1.0 | 3.0 | 0.00 | 0.00 | 0.00 | 80 | 1022.7 |
| 20260502035206 | 40 | 286 | 1.0 | 3.0 | 0.00 | 0.00 | 0.00 | 80 | 1022.7 |
| 20260502034705 | 40 | 262 | 1.0 | 3.0 | 0.00 | 0.00 | 0.00 | 80 | 1022.7 |
| 20260502032206 | 41 | 101 | 0.0 | 2.0 | 0.00 | 0.00 | 0.00 | 79 | 1022.8 |
| 20260502031705 | 41 | 72 | 0.0 | 1.0 | 0.00 | 0.00 | 0.00 | 78 | 1022.9 |
| 20260502031205 | 41 | 46 | 0.0 | 1.0 | 0.00 | 0.00 | 0.00 | 78 | 1022.9 |
| 20260502030705 | 41 | 240 | 0.0 | 2.0 | 0.00 | 0.00 | 0.00 | 78 | 1022.9 |
| 20260502030206 | 42 | 269 | 1.0 | 2.0 | 0.00 | 0.00 | 0.00 | 77 | 1022.9 |
| 20260502025706 | 42 | 46 | 1.0 | 3.0 | 0.00 | 0.00 | 0.00 | 77 | 1022.9 |
| 20260502025206 | 42 | 89 | 1.0 | 3.0 | 0.00 | 0.00 | 0.00 | 77 | 1022.9 |
| 20260502024709 | 42 | 89 | 2.0 | 3.0 | 0.00 | 0.00 | 0.00 | 77 | 1023.0 |
| 20260502024206 | 42 | 89 | 2.0 | 3.0 | 0.00 | 0.00 | 0.00 | 76 | 1023.0 |
| 20260502023705 | 42 | 81 | 1.0 | 2.0 | 0.00 | 0.00 | 0.00 | 76 | 1023.0 |
| 20260502022206 | 43 | 56 | 1.0 | 2.0 | 0.00 | 0.00 | 0.00 | 76 | 1023.0 |
| 20260502021706 | 43 | 108 | 0.0 | 2.0 | 0.00 | 0.00 | 0.00 | 76 | 1023.0 |
| 20260502021206 | 43 | 56 | 0.0 | 2.0 | 0.00 | 0.00 | 0.00 | 75 | 1023.1 |
| 20260502020705 | 43 | 89 | 1.0 | 3.0 | 0.00 | 0.00 | 0.00 | 75 | 1023.1 |
| 20260502020206 | 43 | 46 | 1.0 | 3.0 | 0.00 | 0.00 | 0.00 | 75 | 1023.2 |
| 20260502015705 | 43 | 108 | 2.0 | 3.0 | 0.00 | 0.00 | 0.00 | 75 | 1023.2 |
| 20260502015205 | 44 | 63 | 2.0 | 3.0 | 0.00 | 0.00 | 0.00 | 74 | 1023.2 |
| 20260502014705 | 44 | 60 | 2.0 | 3.0 | 0.00 | 0.00 | 0.00 | 74 | 1023.2 |
| 20260502013705 | 44 | 46 | 0.0 | 1.0 | 0.00 | 0.00 | 0.00 | 74 | 1023.3 |
| 20260502013205 | 44 | 46 | 0.0 | 1.0 | 0.00 | 0.00 | 0.00 | 74 | 1023.3 |
| 20260502012204 | 45 | 46 | 1.0 | 2.0 | 0.00 | 0.00 | 0.00 | 73 | 1023.3 |
| 20260502011205 | 45 | 46 | 1.0 | 2.0 | 0.00 | 0.00 | 0.00 | 72 | 1023.4 |
| 20260502010706 | 45 | 314 | 0.0 | 1.0 | 0.00 | 0.00 | 0.00 | 71 | 1023.4 |
| 20260502005706 | 45 | 295 | 0.0 | 1.0 | 0.00 | 0.00 | 0.00 | 71 | 1023.4 |
| 20260502005206 | 46 | 283 | 0.0 | 3.0 | 0.00 | 0.00 | 0.00 | 71 | 1023.4 |
| 20260502004206 | 46 | 314 | 1.0 | 2.0 | 0.00 | 0.00 | 0.00 | 70 | 1023.5 |
| 20260502003706 | 46 | 269 | 0.0 | 2.0 | 0.00 | 0.00 | 0.00 | 70 | 1023.5 |
| 20260502003205 | 46 | 269 | 0.0 | 3.0 | 0.00 | 0.00 | 0.00 | 70 | 1023.5 |
| 20260502002205 | 47 | 20 | 2.0 | 4.0 | 0.00 | 0.00 | 0.00 | 70 | 1023.6 |
| 20260502001706 | 47 | 56 | 3.0 | 4.0 | 0.00 | 0.00 | 0.00 | 70 | 1023.5 |
| 20260502001205 | 47 | 74 | 3.0 | 4.0 | 0.00 | 0.00 | 0.00 | 70 | 1023.5 |
| 20260502000705 | 47 | 56 | 2.0 | 3.0 | 0.00 | 0.00 | 0.00 | 69 | 1023.6 |
| 20260502000205 | 47 | 58 | 1.0 | 3.0 | 0.00 | 0.00 | 0.00 | 69 | 1023.6 |
| 20260501235705 | 47 | 46 | 1.0 | 2.0 | 0.00 | 0.00 | 0.00 | 68 | 1023.6 |
| 20260501235205 | 48 | 15 | 0.0 | 2.0 | 0.00 | 0.00 | 0.00 | 67 | 1023.6 |
| 20260501234705 | 48 | 1 | 0.0 | 2.0 | 0.00 | 0.00 | 0.00 | 67 | 1023.6 |
| 20260501234205 | 48 | 286 | 0.0 | 2.0 | 0.00 | 0.00 | 0.00 | 67 | 1023.7 |
| 20260501233705 | 48 | 117 | 1.0 | 2.0 | 0.00 | 0.00 | 0.00 | 66 | 1023.7 |
| 20260501233205 | 49 | 28 | 0.0 | 2.0 | 0.00 | 0.00 | 0.00 | 66 | 1023.6 |
| 20260501232705 | 49 | 46 | 0.0 | 1.0 | 0.00 | 0.00 | 0.00 | 65 | 1023.7 |
| 20260501232206 | 49 | 253 | 0.0 | 2.0 | 0.00 | 0.00 | 0.00 | 65 | 1023.6 |
| 20260501231705 | 49 | 269 | 0.0 | 3.0 | 0.00 | 0.00 | 0.00 | 65 | 1023.6 |
| 20260501231205 | 49 | 46 | 1.0 | 3.0 | 0.00 | 0.00 | 0.00 | 65 | 1023.6 |
| 20260501230705 | 49 | 46 | 2.0 | 3.0 | 0.00 | 0.00 | 0.00 | 64 | 1023.6 |
| 20260501230205 | 50 | 58 | 2.0 | 3.0 | 0.00 | 0.00 | 0.00 | 64 | 1023.6 |
| 20260501225705 | 50 | 60 | 2.0 | 3.0 | 0.00 | 0.00 | 0.00 | 64 | 1023.7 |
| 20260501225206 | 50 | 65 | 1.0 | 2.0 | 0.00 | 0.00 | 0.00 | 64 | 1023.7 |
| 20260501224706 | 50 | 39 | 0.0 | 2.0 | 0.00 | 0.00 | 0.00 | 63 | 1023.7 |
| 20260501223705 | 51 | 314 | 2.0 | 4.0 | 0.00 | 0.00 | 0.00 | 62 | 1023.7 |
| 20260501223205 | 51 | 89 | 2.0 | 4.0 | 0.00 | 0.00 | 0.00 | 62 | 1023.7 |
| 20260501222206 | 51 | 81 | 2.0 | 3.0 | 0.00 | 0.00 | 0.00 | 60 | 1023.7 |
| 20260501221705 | 51 | 98 | 2.0 | 3.0 | 0.00 | 0.00 | 0.00 | 60 | 1023.7 |
| 20260501221205 | 52 | 89 | 2.0 | 4.0 | 0.00 | 0.00 | 0.00 | 59 | 1023.7 |
| 20260501220705 | 52 | 56 | 2.0 | 4.0 | 0.00 | 0.00 | 0.00 | 59 | 1023.7 |
| 20260501220213 | 52 | 89 | 2.0 | 4.0 | 0.00 | 0.00 | 0.00 | 58 | 1023.6 |
| 20260501215706 | 52 | 100 | 2.0 | 4.0 | 0.00 | 0.00 | 0.00 | 58 | 1023.6 |
| 20260501215206 | 53 | 67 | 2.0 | 3.0 | 0.00 | 0.00 | 0.00 | 58 | 1023.6 |
| 20260501214705 | 53 | 102 | 1.0 | 2.0 | 0.00 | 0.00 | 0.00 | 58 | 1023.6 |
| 20260501214206 | 53 | 89 | 0.0 | 3.0 | 0.00 | 0.00 | 0.00 | 57 | 1023.6 |
| 20260501213706 | 53 | 15 | 1.0 | 3.0 | 0.00 | 0.00 | 0.00 | 57 | 1023.7 |
| 20260501213206 | 54 | 46 | 1.0 | 4.0 | 0.00 | 0.00 | 0.00 | 56 | 1023.6 |
| 20260501212205 | 54 | 99 | 2.0 | 4.0 | 0.00 | 0.00 | 0.00 | 55 | 1023.5 |
| 20260501211706 | 55 | 104 | 2.0 | 5.0 | 0.00 | 0.00 | 0.00 | 55 | 1023.6 |
| 20260501210705 | 55 | 164 | 3.0 | 6.0 | 0.00 | 0.00 | 0.00 | 54 | 1023.4 |
| 20260501210206 | 55 | 82 | 4.0 | 6.0 | 0.00 | 0.00 | 0.00 | 53 | 1023.4 |
| 20260501205706 | 56 | 84 | 4.0 | 6.0 | 0.00 | 0.00 | 0.00 | 53 | 1023.4 |
| 20260501205206 | 56 | 79 | 3.0 | 5.0 | 0.00 | 0.00 | 0.00 | 52 | 1023.4 |
| 20260501203206 | 57 | 65 | 4.0 | 7.0 | 0.00 | 0.00 | 0.00 | 51 | 1023.2 |
| 20260501202705 | 57 | 72 | 4.0 | 5.0 | 0.00 | 0.00 | 0.00 | 51 | 1023.2 |
| 20260501201705 | 58 | 72 | 2.0 | 5.0 | 0.00 | 0.00 | 0.00 | 49 | 1023.3 |
| 20260501201208 | 58 | 67 | 2.0 | 5.0 | 0.00 | 0.00 | 0.00 | 48 | 1023.3 |
| 20260501200704 | 58 | 79 | 3.0 | 5.0 | 0.00 | 0.00 | 0.00 | 48 | 1023.2 |
| 20260501200205 | 59 | 107 | 3.0 | 4.0 | 0.00 | 0.00 | 0.00 | 48 | 1023.1 |
| 20260501195705 | 59 | 94 | 2.0 | 4.0 | 0.00 | 0.00 | 0.00 | 47 | 1023.2 |
| 20260501195205 | 60 | 104 | 2.0 | 4.0 | 0.00 | 0.00 | 0.00 | 47 | 1023.1 |
| 20260501194705 | 60 | 104 | 2.0 | 5.0 | 0.00 | 0.00 | 0.00 | 46 | 1023.1 |
| 20260501194205 | 61 | 121 | 3.0 | 5.0 | 0.00 | 0.00 | 0.00 | 45 | 1023.1 |
| 20260501193705 | 61 | 51 | 3.0 | 5.0 | 0.00 | 0.00 | 0.00 | 44 | 1023.1 |
| 20260501193205 | 62 | 105 | 2.0 | 5.0 | 0.00 | 0.00 | 0.00 | 43 | 1023.0 |
| 20260501192706 | 62 | 100 | 2.0 | 5.0 | 0.00 | 0.00 | 0.00 | 43 | 1023.1 |
| 20260501192206 | 63 | 98 | 3.0 | 5.0 | 0.00 | 0.00 | 0.00 | 43 | 1023.0 |
| 20260501191705 | 63 | 79 | 3.0 | 4.0 | 0.00 | 0.00 | 0.00 | 42 | 1023.0 |
| 20260501191205 | 64 | 83 | 3.0 | 4.0 | 0.00 | 0.00 | 0.00 | 42 | 1023.1 |
| 20260501190205 | 65 | 89 | 2.0 | 4.0 | 0.00 | 0.00 | 0.00 | 40 | 1023.1 |
| 20260501185705 | 65 | 95 | 2.0 | 5.0 | 0.00 | 0.00 | 0.00 | 40 | 1023.0 |
| 20260501185205 | 66 | 151 | 2.0 | 5.0 | 0.00 | 0.00 | 0.00 | 39 | 1023.1 |
| 20260501184705 | 66 | 89 | 2.0 | 5.0 | 0.00 | 0.00 | 0.00 | 39 | 1023.1 |
| 20260501184206 | 67 | 103 | 2.0 | 5.0 | 0.00 | 0.00 | 0.00 | 39 | 1023.1 |
| 20260501183705 | 67 | 135 | 2.0 | 5.0 | 0.00 | 0.00 | 0.00 | 38 | 1023.1 |
| 20260501183206 | 67 | 89 | 2.0 | 5.0 | 0.00 | 0.00 | 0.00 | 38 | 1023.0 |
| 20260501182705 | 68 | 81 | 2.0 | 5.0 | 0.00 | 0.00 | 0.00 | 38 | 1023.0 |
| 20260501182206 | 68 | 89 | 2.0 | 6.0 | 0.00 | 0.00 | 0.00 | 38 | 1022.9 |
| 20260501181706 | 68 | 108 | 3.0 | 6.0 | 0.00 | 0.00 | 0.00 | 38 | 1022.9 |
| 20260501180705 | 67 | 79 | 2.0 | 6.0 | 0.00 | 0.00 | 0.00 | 39 | 1022.9 |
| 20260501180205 | 68 | 72 | 3.0 | 6.0 | 0.00 | 0.00 | 0.00 | 38 | 1023.0 |
| 20260501175705 | 68 | 119 | 4.0 | 8.0 | 0.00 | 0.00 | 0.00 | 37 | 1023.0 |
| 20260501175205 | 69 | 112 | 4.0 | 9.0 | 0.00 | 0.00 | 0.00 | 37 | 1023.0 |
| 20260501174705 | 69 | 101 | 4.0 | 9.0 | 0.00 | 0.00 | 0.00 | 37 | 1023.0 |
| 20260501173706 | 69 | 122 | 4.0 | 11.0 | 0.00 | 0.00 | 0.00 | 37 | 1023.0 |
| 20260501173206 | 70 | 117 | 5.0 | 11.0 | 0.00 | 0.00 | 0.00 | 36 | 1022.9 |
| 20260501172705 | 70 | 109 | 4.0 | 8.0 | 0.00 | 0.00 | 0.00 | 35 | 1022.9 |
| 20260501172206 | 71 | 95 | 4.0 | 10.0 | 0.00 | 0.00 | 0.00 | 34 | 1023.0 |
| 20260501171705 | 71 | 115 | 4.0 | 10.0 | 0.00 | 0.00 | 0.00 | 35 | 1023.0 |
| 20260501171206 | 71 | 314 | 4.0 | 11.0 | 0.00 | 0.00 | 0.00 | 34 | 1023.0 |
| 20260501170705 | 72 | 89 | 5.0 | 12.0 | 0.00 | 0.00 | 0.00 | 35 | 1023.0 |
| 20260501170233 | 72 | 82 | 6.0 | 15.0 | 0.00 | 0.00 | 0.00 | 35 | 1023.1 |
| 20260501165706 | 72 | 135 | 6.0 | 15.0 | 0.00 | 0.00 | 0.00 | 32 | 1023.0 |
| 20260501165205 | 73 | 88 | 6.0 | 15.0 | 0.00 | 0.00 | 0.00 | 32 | 1023.1 |
| 20260501164705 | 73 | 96 | 7.0 | 14.0 | 0.00 | 0.00 | 0.00 | 32 | 1023.1 |
| 20260501163705 | 74 | 129 | 5.0 | 12.0 | 0.00 | 0.00 | 0.00 | 32 | 1023.2 |
| 20260501163205 | 74 | 143 | 4.0 | 10.0 | 0.00 | 0.00 | 0.00 | 32 | 1023.3 |
| 20260501162705 | 74 | 169 | 4.0 | 15.0 | 0.00 | 0.00 | 0.00 | 33 | 1023.3 |
| 20260501162205 | 74 | 127 | 5.0 | 15.0 | 0.00 | 0.00 | 0.00 | 32 | 1023.3 |
| 20260501161705 | 74 | 124 | 6.0 | 15.0 | 0.00 | 0.00 | 0.00 | 32 | 1023.4 |
| 20260501160705 | 74 | 95 | 6.0 | 13.0 | 0.00 | 0.00 | 0.00 | 31 | 1023.4 |
| 20260501160205 | 74 | 117 | 8.0 | 14.0 | 0.00 | 0.00 | 0.00 | 31 | 1023.5 |
| 20260501155705 | 75 | 115 | 8.0 | 15.0 | 0.00 | 0.00 | 0.00 | 31 | 1023.5 |